Weather History for KAKO - October, 2013

Change the Weather History Date:

Saturday, October 12, 2013

  Actual Average Record
Temperature  
Mean Temperature 48 °F 52 °F  
Max Temperature 57 °F 65 °F 87 °F (1975)
Min Temperature 39 °F 38 °F 18 °F (1969)
Degree Days  
Heating Degree Days 17    
Month to date heating degree days 142  
Cooling Degree Days 0    
Month to date cooling degree days 0  
Moisture  
Dew Point 38 °F    
Average Humidity 72    
Maximum Humidity 93    
Minimum Humidity 50    
Precipitation  
Precipitation 0.02 in 0.05 in 0.64 in (1943)
Month to date precipitation 0.20 0.51  
Year to date precipitation 15.91 15.16  
Sea Level Pressure  
Sea Level Pressure 30.14 in    
Wind  
Wind Speed 9 mph (SE)    
Max Wind Speed 28 mph    
Max Gust Speed 37 mph    
Visibility 10 miles    
Events Rain    
T = Trace of Precipitation, MM = Missing Value Source: NWS Daily Summary

Daily Weather History Graph

Daily Weather History Graph

Search for Another Location

Airport or City:

Trip Planner

Search our weather history database for the weather conditions in past years. The results will help you decide how hot, cold, wet, or windy it might be!

Date:

Astronomy

Oct. 12, 2013 Rise Set
Actual Time 7:00 AM MDT 6:17 PM MDT
Civil Twilight 6:33 AM MDT 6:44 PM MDT
Nautical Twilight 6:01 AM MDT 7:15 PM MDT
Astronomical Twilight 5:30 AM MDT 7:47 PM MDT
Moon 2:28 PM MDT (10/12) 12:06 AM MDT (10/12)
Length of Visible Light 12h 11m
Length of Day
11h 16m
First Quarter, 59% of the Moon is Illuminated
Oct 12
First Quarter
Oct 18
Full
Oct 26
Last Quarter
Nov 3
New
Nov 9
First Quarter

Hourly Weather History & Observations

Time (MDT) Temp. Windchill Dew Point Humidity Pressure Visibility Wind Dir Wind Speed Gust Speed Precip Events Conditions
12:53 AM 43.0 °F 41.3 °F 39.9 °F 89% 30.05 in 10.0 mi NNW 3.5 mph - 0.00 in Rain Light Rain
1:53 AM 44.1 °F - 39.9 °F 85% 30.07 in 10.0 mi Calm Calm - 0.01 in   Overcast
2:53 AM 43.0 °F - 39.0 °F 86% 30.09 in 10.0 mi Calm Calm - N/A   Scattered Clouds
3:53 AM 41.0 °F - 39.0 °F 93% 30.10 in 10.0 mi Calm Calm - N/A   Overcast
4:53 AM 42.1 °F 37.7 °F 37.9 °F 85% 30.12 in 10.0 mi NNE 6.9 mph - N/A   Overcast
5:53 AM 41.0 °F 37.1 °F 37.0 °F 86% 30.14 in 10.0 mi NE 5.8 mph - 0.00 in Rain Light Rain
6:53 AM 39.0 °F 35.7 °F 34.0 °F 82% 30.16 in 10.0 mi ENE 4.6 mph - 0.00 in   Mostly Cloudy
7:53 AM 39.0 °F 36.8 °F 35.1 °F 86% 30.19 in 10.0 mi ESE 3.5 mph - N/A   Mostly Cloudy
8:53 AM 44.1 °F 40.1 °F 37.0 °F 76% 30.21 in 10.0 mi ESE 6.9 mph - N/A   Overcast
9:53 AM 48.9 °F - 37.9 °F 66% 30.20 in 10.0 mi SSE 15.0 mph - N/A   Overcast
10:53 AM 51.1 °F - 39.0 °F 63% 30.18 in 10.0 mi SSE 13.8 mph - N/A   Clear
11:53 AM 54.0 °F - 41.0 °F 62% 30.17 in 10.0 mi South 20.7 mph 29.9 mph 0.01 in   Mostly Cloudy
12:09 PM 55.4 °F - 42.8 °F 63% 30.20 in 10.0 mi South 18.4 mph 26.5 mph N/A   Mostly Cloudy
12:53 PM 55.0 °F - 42.1 °F 62% 30.14 in 10.0 mi South 18.4 mph 24.2 mph N/A   Overcast
1:53 PM 54.0 °F - 41.0 °F 62% 30.12 in 10.0 mi SSE 23.0 mph 26.5 mph N/A   Overcast
2:53 PM 55.9 °F - 42.1 °F 60% 30.10 in 10.0 mi SSE 21.9 mph 29.9 mph N/A   Scattered Clouds
3:53 PM 55.9 °F - 41.0 °F 57% 30.09 in 10.0 mi SSE 25.3 mph 35.7 mph N/A   Clear
4:53 PM 54.0 °F - 39.0 °F 57% 30.11 in 10.0 mi South 19.6 mph 35.7 mph N/A   Clear
5:53 PM 53.1 °F - 36.0 °F 52% 30.12 in 10.0 mi South 17.3 mph - N/A   Clear
6:53 PM 50.0 °F - 37.0 °F 61% 30.15 in 10.0 mi SSE 12.7 mph - N/A   Clear
7:53 PM 46.0 °F 41.9 °F 37.0 °F 71% 30.17 in 10.0 mi ESE 8.1 mph - N/A   Clear
8:53 PM 45.0 °F 38.5 °F 37.0 °F 74% 30.17 in 10.0 mi SSE 13.8 mph - N/A   Mostly Cloudy
9:53 PM 44.1 °F 37.7 °F 37.0 °F 76% 30.17 in 10.0 mi SSE 12.7 mph - N/A   Partly Cloudy
10:53 PM 45.0 °F 37.6 °F 36.0 °F 71% 30.16 in 10.0 mi SSE 17.3 mph - N/A   Mostly Cloudy
11:53 PM 45.0 °F 38.5 °F 36.0 °F 71% 30.15 in 10.0 mi SSE 13.8 mph - N/A   Mostly Cloudy